Location: Alphaba - Cockrum - Ingrams Mill Volunteer Fire Department Station 2
(34.7915°N, 89.7598°W)
Time: 08:45:10
(UTC+00:00)

Cosmos 2151 - Pass Details

Date: 11 December 2025
Orbit: 559 x 576 km, 82.5° (Epoch: 24 January)

Event Time Altitude Azimuth Distance (km) Brightness Sun altitude
Rises 23:28:14 0° 351° (N) 2,789 6.3 -8.2°
Reaches altitude 10° 23:30:25 10° 349° (N) 1,888 5.4 -8.7°
Maximum altitude 23:34:34 73° 265° (W) 606 3.2 -9.5°
Drops below altitude 10° 23:38:42 10° 181° (S) 1,880 5.8 -10.2°
Sets 23:40:53 0° 179° (S) 2,774 6.7 -10.7°
